Flag for Brazil Weather past 2 weeks in Rio de Janeiro, Rio de Janeiro, Brazil

Now
72 °F

Passing clouds.


Feels Like: 67 °F
Forecast: 68 / 80 °F
Wind: 2 mph from Southeast

Location: Rio De Janeiro Airport

Current Time: Jul 31, 2015 at 3:10:40 AM

Latest Report: Jul 31, 2015 at 2:00 AM


Visibility: 4 mi

Pressure: 30.12 "Hg

Humidity: 94%

Dew point: 70 °F

Location of Rio de JaneiroLocation

Historic Weather in Rio de Janeiro — Graph

°F

Rio de Janeiro temperature yesterday

Maximum temperature yesterday: 77 °F (at 1:00 PM)
Minimum temperature yesterday: 70 °F (at 4:00 AM)
Average temperature yesterday: 73 °F

Past Weeks' High & Low Weather Summary

 TemperatureHumidityPressure
High90 °F (Jul 21, 2:00 PM)100% (Jul 18, 1:00 AM)30.30 "Hg (Jul 18, 1:00 AM)
Low66 °F (Jul 22, 2:00 AM)35% (Jul 21, 1:00 PM)29.92 "Hg (Jul 21, 4:00 AM)
Average72 °F83%30.11 "Hg
* Reported Jul 16 2:00 AM — Jul 31 2:00 AM, Rio de Janeiro, Weather by CustomWeather, © 2015

Note: Actual official high and low records may vary slightly from our data, if they occured in-between our weather recording intervals... More about our weather records

Advertising

Rio de Janeiro weather history for previous 24 hours

 ConditionsComfort  
Time TempWeatherWind HumidityBarometerVisibility
2:00 AM
Fri, Jul 31
72 °FPassing clouds.2 mph94%30.12 "Hg4 mi
1:00 AM73 °FPassing clouds.2 mph89%30.12 "Hg4 mi
12:00 AM73 °FPassing clouds.3 mph89%30.15 "Hg5 mi
11:00 PM
Thu, Jul 30
73 °FPassing clouds.3 mph89%30.15 "HgN/A
10:00 PM72 °FPassing clouds.8 mph94%30.15 "Hg5 mi
9:00 PM72 °FPassing clouds.12 mph94%30.12 "Hg5 mi
8:00 PM72 °FPassing clouds.13 mph94%30.12 "HgN/A
7:00 PM73 °FPassing clouds.13 mph89%30.12 "HgN/A
6:00 PM73 °FPassing clouds.10 mph89%30.09 "HgN/A
5:00 PM73 °FPassing clouds.12 mph89%30.09 "HgN/A
4:00 PM75 °FPassing clouds.13 mph83%30.09 "HgN/A
3:00 PM75 °FPassing clouds.14 mph83%30.09 "HgN/A
2:00 PM75 °FPassing clouds.14 mph83%30.09 "HgN/A
1:00 PM77 °FPassing clouds.12 mph79%30.12 "HgN/A
12:00 PM75 °FPassing clouds.9 mph78%30.15 "HgN/A
11:00 AM75 °FPassing clouds.7 mph83%30.18 "HgN/A
10:00 AM75 °FScattered clouds.6 mph78%30.18 "HgN/A
9:00 AM73 °FScattered clouds.6 mph83%30.18 "HgN/A
8:00 AM72 °FScattered clouds.2 mph83%30.18 "HgN/A
7:00 AM70 °FPartly sunny.2 mph88%30.18 "HgN/A
6:00 AM70 °FPartly sunny.2 mph94%30.15 "HgN/A
5:00 AM70 °FPassing clouds.2 mph88%30.15 "HgN/A
4:00 AM70 °FPassing clouds.3 mph94%30.15 "Hg4 mi
3:00 AM72 °FPassing clouds.2 mph88%30.15 "Hg4 mi
Weather by CustomWeather, © 2015

See weather overviewHow to use our weather pages